CAPE
0 0 0 0 0 0 0 0 0 0 0 0 0 0 0 0 0 0 0 1 4 8 10 7 10 4 14 23 24 22 17 25 40 23 28 23 13 12 10 8 4 5 13
0 0 0 0 0 0 0 0 0 0 0 0 0 0 0 0 0 1 3 5 7 4 10 9 11 8 11 18 25 23 27 16 22 26 25 35 25 16 19 14 16 10 11
0 0 0 0 0 0 0 0 0 0 0 0 0 0 0 0 1 3 5 2 2 1 2 8 9 10 6 7 9 14 32 24 31 29 23 20 23 15 15 18 17 7 5
0 0 0 0 0 0 0 0 0 0 0 0 0 0 1 5 7 12 5 2 2 3 6 5 6 16 6 0 0 2 6 13 24 44 39 42 16 10 23 27 25 22 4
0 0 0 0 0 0 0 0 0 0 0 0 0 3 8 12 10 11 21 27 31 37 22 8 8 6 50 42 3 1 7 11 29 53 71 50 42 22 19 23 32 28 20
0 0 0 0 0 0 0 0 0 0 0 3 7 8 6 17 24 52 63 67 69 87 50 85 74 78 73 167 198 192 15 15 21 49 50 59 21 13 29 20 20 26 33
0 0 0 0 0 0 0 0 0 0 4 3 2 2 6 13 39 70 82 79 95 103 93 110 52 38 63 51 80 98 114 151 75 7 10 17 9 24 15 23 21 24 45
0 0 0 0 0 0 0 0 0 4 5 7 11 15 21 14 52 81 95 81 76 42 65 34 18 15 20 18 14 14 16 16 16 44 5 6 10 7 21 38 35 27 81
0 0 0 0 0 0 0 0 6 10 11 15 19 21 27 22 48 72 76 68 62 61 38 10 9 27 40 74 35 29 15 2 18 67 66 51 54 42 30 59 75 100 38
0 0 0 0 0 0 0 5 9 9 20 12 16 18 28 21 26 68 66 66 68 101 11 26 55 49 76 123 46 27 2 3 14 12 38 32 46 80 74 32 83 91 39
0 0 0 0 0 0 3 4 9 13 13 17 27 22 13 11 23 66 53 52 78 41 21 41 15 26 33 34 40 44 21 38 51 44 51 61 56 73 77 151 113 192 90
0 0 0 0 0 1 3 2 4 14 23 24 15 10 14 46 27 49 74 66 72 26 16 31 17 6 9 0 9 43 95 60 84 81 86 66 109 57 31 117 93 75 93
0 0 0 0 0 4 3 12 30 21 21 21 11 17 2 15 32 55 72 63 51 31 20 55 48 30 19 32 5 54 49 133 142 102 122 46 29 10 11 2 25 95 65
0 0 0 0 3 6 3 13 28 23 11 9 22 27 17 32 62 62 59 54 41 19 16 27 18 51 18 33 43 47 67 122 24 80 46 5 37 9 3 9 39 27 22
0 0 0 0 2 5 11 24 28 20 33 45 37 38 31 47 38 45 51 60 55 50 30 46 4 39 60 64 16 16 15 15 32 71 44 36 16 22 17 36 19 16 19
0 0 0 8 4 9 24 17 20 39 43 37 44 71 63 61 37 43 50 48 32 58 18 13 24 23 18 28 29 41 10 4 9 31 54 41 20 14 24 28 21 37 57
1 0 5 7 15 27 25 15 12 11 35 35 41 55 33 58 35 33 45 25 20 26 22 20 15 12 21 18 34 38 8 1 3 30 35 39 13 0 18 20 10 49 103
0 5 5 15 29 27 17 13 12 14 17 12 14 30 21 52 38 30 35 18 12 10 11 24 19 19 13 14 10 24 18 3 4 27 25 17 7 24 29 13 0 17 81
3 7 5 24 39 27 18 11 11 17 20 30 24 16 22 36 19 30 19 21 28 21 14 12 22 20 15 10 9 18 16 9 4 36 37 37 43 39 38 31 17 4 24
6 10 10 28 26 24 14 15 15 30 31 20 51 50 33 54 23 21 19 22 20 18 17 11 8 18 7 15 11 8 10 8 7 28 37 37 43 37 23 18 14 11 4
4 10 14 10 22 22 16 18 9 12 17 38 35 17 54 52 42 28 23 24 30 26 25 26 6 12 9 8 11 8 6 4 2 13 20 23 18 16 27 24 24 29 7
12 5 9 14 36 22 23 19 14 15 25 24 17 14 47 15 27 28 23 25 30 27 30 32 16 6 12 9 9 9 7 5 3 15 13 11 17 18 21 38 32 37 26
8 3 4 16 24 30 20 26 15 17 31 27 18 20 26 26 26 21 28 20 14 10 11 23 19 7 10 8 9 12 9 6 6 6 21 8 9 14 12 32 43 56 34
6 4 2 16 29 35 37 27 19 21 17 22 44 28 31 27 24 27 21 13 9 6 4 3 11 9 5 10 13 16 9 8 5 3 3 10 10 7 16 3 49 58 36
5 2 9 23 32 32 17 35 21 24 20 51 26 31 26 29 28 24 16 12 5 2 3 2 4 9 13 12 8 4 10 4 3 2 2 10 3 3 8 7 15 45 55
7 5 8 16 35 36 28 41 18 22 25 30 37 33 34 25 28 23 12 7 1 0 0 0 0 0 4 5 6 6 4 1 1 0 3 17 21 11 8 4 3 39 51
CIN
0 0 0 0 0 0 0 0 0 0 0 0 0 0 0 0 0 0 0 0 0 0 0 0 0 -0 -0 0 0 0 0 -0 0 0 0 0 0 0 0 0 0 0 0
0 0 0 0 0 0 0 0 0 0 0 0 0 0 0 0 0 0 0 0 0 0 0 0 0 0 0 0 0 0 0 0 0 0 0 0 0 0 0 0 0 0 0
0 0 0 0 0 0 0 0 0 0 0 0 0 0 0 0 0 0 0 0 0 -0 0 0 0 0 0 0 0 0 0 0 0 0 0 0 0 0 0 0 0 0 0
0 0 0 0 0 0 0 0 0 0 0 0 0 0 0 0 0 0 -0 0 0 -1 0 -2 -0 -0 -0 0 0 0 0 0 0 0 0 0 0 0 0 0 0 0 0
0 0 0 0 0 0 0 0 0 0 0 0 0 0 0 0 0 -0 0 0 0 -0 -1 -0 -0 -1 0 0 0 0 0 0 0 0 0 0 0 0 0 0 0 0 0
0 0 0 0 0 0 0 0 0 0 0 0 0 0 0 0 0 0 0 -0 0 0 -0 0 0 -0 0 0 0 0 -1 0 0 0 0 0 0 0 0 0 0 0 0
0 0 0 0 0 0 0 0 0 0 0 0 -0 -0 0 0 0 0 0 0 0 0 0 0 -0 0 0 0 0 0 0 0 0 -1 -0 0 0 0 0 0 0 0 0
0 0 0 0 0 0 0 0 0 0 -0 0 0 -0 0 -1 0 0 0 0 0 0 0 0 -0 0 -0 -0 -0 -0 0 0 -0 0 -0 -0 -0 -0 -0 0 -0 0 0
0 0 0 0 0 0 0 0 0 0 0 0 0 0 0 -0 0 0 0 0 0 0 -0 -1 -1 0 0 -1 -0 -0 -0 0 0 0 0 -0 -0 -13 -0 -0 0 0 0
0 0 0 0 0 0 0 0 0 0 0 0 0 0 0 -0 0 0 0 0 0 0 -0 0 0 0 0 0 -0 -0 0 0 0 -1 0 -0 -0 -1 -1 -0 0 0 -0
0 0 0 0 0 0 0 0 0 0 0 -0 0 0 0 -1 -0 0 0 -0 0 0 0 0 0 0 0 0 0 0 0 0 0 0 0 0 -0 0 -2 0 -0 0 0
0 0 0 0 0 0 0 0 0 0 0 0 -0 -0 -0 0 0 0 0 0 0 0 0 -4 0 0 0 -0 -0 -13 0 -0 0 -0 -0 0 0 -0 -0 -0 -0 -1 -1
0 0 0 0 0 0 0 0 0 0 0 0 -1 0 -0 -5 0 0 0 0 0 0 0 0 0 0 -2 -0 -7 -5 -4 0 0 0 0 -0 -0 -3 -2 -0 0 -22 0
0 0 0 0 0 0 0 0 0 0 0 -1 0 0 0 0 0 0 0 0 0 0 0 0 0 0 -6 -6 -3 -0 0 0 -1 -0 0 -0 0 0 0 0 -0 -0 -0
0 0 0 0 -0 0 0 0 0 0 0 0 0 0 0 0 0 -0 -0 0 0 0 0 0 0 0 0 0 -0 0 0 0 -1 0 0 0 0 0 0 0 -0 0 0
0 0 0 0 -0 0 0 0 0 0 0 0 0 0 0 0 0 0 0 0 0 0 0 0 0 0 0 0 0 0 0 0 0 -1 -0 0 0 -2 -3 0 0 0 -2
0 0 0 0 0 0 0 0 0 0 0 0 0 0 0 0 0 0 0 0 0 0 0 0 0 -0 -1 0 0 0 0 0 0 -0 0 0 0 -0 0 0 -0 -1 -4
0 0 -0 0 0 0 0 0 0 0 0 0 0 0 0 0 0 0 0 0 0 0 0 0 0 0 0 -2 -1 -0 0 -1 -2 -0 -0 0 -1 0 0 0 0 0 0
0 0 0 0 0 0 0 0 0 0 0 0 0 0 0 0 -0 0 0 0 0 0 0 0 0 0 0 0 0 0 -0 -2 -0 -1 0 0 0 0 0 0 0 -1 -0
0 0 0 0 0 0 0 0 0 0 0 0 0 0 0 0 0 0 0 0 0 0 0 -0 -1 -0 -1 0 0 0 -2 -0 -6 0 0 0 0 0 0 0 0 0 0
-0 0 0 0 0 0 0 0 0 0 0 0 0 0 0 0 0 0 0 0 0 0 0 0 0 0 -0 0 0 0 0 -1 -2 0 0 0 0 0 0 0 -0 0 0
0 0 -0 0 0 0 0 0 0 0 0 0 0 0 0 0 0 0 0 0 0 0 0 0 0 -0 0 0 -0 0 0 0 0 -0 0 0 0 0 0 0 -2 -2 -1
0 -0 -0 0 0 0 0 0 0 0 0 0 -0 0 0 0 0 0 0 0 0 0 0 0 -0 0 0 -0 0 0 0 0 0 -1 0 0 0 0 -0 -0 0 0 -1
0 -0 -0 0 0 0 0 0 0 0 0 0 -0 0 0 0 0 0 0 0 0 0 0 0 0 0 0 0 -0 0 0 0 0 0 -14 -6 -1 -0 0 -4 -0 0 -2
0 -0 -0 0 0 0 0 0 0 0 0 0 0 0 0 0 0 0 0 0 0 0 0 0 0 0 0 0 0 -0 0 -1 -0 0 0 -1 -2 -0 -0 -1 -2 0 -0
0 0 0 0 0 0 0 0 0 0 0 0 0 0 0 0 0 0 0 0 0 0 0 0 0 0 0 0 0 0 0 0 0 -0 0 -0 -0 -1 0 -0 0 0 0
Wind_Speed
2 4 6 7 8 9 10 11 12 13 14 15 16 16 16 16 15 15 16 16 16 16 16 15 16 16 10 10 10 10 11 11 15 13 13 13 15 15 14 13 14 15 13
5 6 7 8 9 10 11 13 14 15 15 16 16 17 17 16 16 16 16 15 16 16 14 16 17 12 17 15 12 16 13 14 12 16 12 11 16 15 15 14 13 12 13
6 7 8 10 10 12 13 14 15 16 16 16 17 17 17 16 16 16 16 16 16 17 17 16 17 16 15 12 14 13 13 13 13 12 11 11 11 12 14 14 14 15 14
6 8 9 11 12 12 14 15 16 16 17 17 17 17 16 16 16 16 16 17 17 16 17 18 19 17 17 17 16 17 15 14 14 13 11 11 10 11 12 12 12 12 13
7 9 10 11 12 13 14 15 16 16 16 17 17 17 16 14 12 15 15 16 17 17 17 18 18 21 29 27 15 17 17 14 13 12 12 10 10 11 12 12 10 11 13
8 10 11 12 13 13 15 15 16 16 16 16 17 17 16 12 21 25 23 16 17 16 14 17 16 24 25 33 36 36 25 18 18 14 13 13 12 11 12 11 11 12 12
10 11 12 12 14 14 15 16 16 16 15 16 17 16 17 17 25 27 28 15 16 17 17 17 15 14 24 20 26 30 28 30 30 20 17 14 14 15 12 12 12 13 11
11 12 12 13 15 15 16 17 16 15 15 15 15 15 15 14 25 27 28 18 15 17 19 19 18 21 20 22 19 16 16 16 15 11 15 12 12 10 10 11 11 14 12
11 12 12 14 15 16 16 17 15 15 16 15 15 16 16 16 25 26 24 15 15 17 18 17 20 21 28 33 18 14 13 10 14 23 22 23 26 25 19 8 11 10 11
12 12 13 14 15 16 16 15 13 13 14 11 14 16 19 15 23 26 23 10 13 14 16 16 22 21 24 17 13 8 9 10 10 11 11 15 18 17 25 16 12 12 8
11 12 14 15 15 15 13 13 12 13 14 13 14 14 14 16 14 23 24 12 11 11 13 9 8 18 17 13 7 8 9 11 16 12 11 9 10 11 9 12 13 12 10
11 13 14 15 13 11 14 14 14 13 13 12 12 12 10 12 17 17 24 23 22 11 14 10 8 14 12 9 3 8 14 12 8 7 7 7 9 6 9 10 12 12 11
12 14 14 15 13 13 14 13 12 11 10 10 10 10 10 8 9 18 21 23 20 14 11 17 16 12 11 8 3 6 6 6 7 7 8 6 4 6 7 6 11 13 12
13 14 13 14 14 14 11 9 10 10 9 9 8 8 8 8 9 10 10 10 15 12 16 11 12 12 6 2 3 4 6 6 5 8 5 4 4 3 6 6 7 8 7
12 13 13 11 12 13 12 9 9 10 12 10 8 8 8 7 11 19 17 10 10 13 15 7 4 7 4 3 4 5 7 7 5 4 4 5 4 6 5 6 3 5 5
12 11 11 10 10 11 10 11 14 17 21 20 19 15 10 15 22 21 22 20 19 19 6 6 7 6 5 5 6 4 4 6 5 5 5 4 3 1 4 6 3 5 7
11 12 10 9 10 9 9 9 10 10 16 17 17 18 20 18 20 20 19 18 16 13 4 6 5 6 6 6 7 4 4 6 4 3 4 4 4 3 3 6 2 3 7
11 15 9 9 9 8 8 9 8 8 9 8 12 16 16 20 18 18 19 14 9 8 6 5 6 5 5 6 6 5 3 2 3 3 4 6 5 6 4 6 3 3 6
9 9 10 8 8 10 8 9 8 8 8 9 9 11 14 20 18 18 17 7 8 8 7 7 5 5 5 5 5 6 5 5 3 2 6 7 5 5 6 5 6 3 6
9 14 12 8 8 8 8 8 8 7 7 8 8 10 10 13 11 9 9 8 7 7 7 7 6 5 6 5 4 4 5 4 2 1 4 5 5 4 5 5 5 6 5
6 9 13 9 9 8 8 8 9 8 8 7 8 10 21 11 9 10 9 8 8 7 7 6 7 6 5 6 5 4 4 4 5 3 3 3 4 4 5 5 5 6 6
8 7 7 8 8 9 8 7 8 8 8 8 8 9 17 8 9 10 10 10 8 7 6 6 6 6 5 6 6 5 4 4 5 6 5 5 5 5 5 6 5 5 5
8 7 8 7 7 10 8 7 8 8 8 10 9 8 9 10 10 11 11 10 9 9 8 7 7 7 6 6 6 7 6 5 4 5 5 6 6 6 5 4 6 8 7
6 7 8 7 7 7 6 8 8 11 11 7 8 10 10 10 10 12 12 10 10 9 8 8 7 9 8 8 7 7 8 7 5 4 4 5 5 6 7 5 6 9 7
6 7 7 7 6 6 8 6 9 9 9 8 9 9 10 11 11 12 12 11 11 10 10 8 7 8 10 12 12 13 12 12 9 6 4 6 8 11 8 6 6 8 10
6 7 7 7 5 6 6 6 9 10 11 9 10 9 10 11 11 12 12 13 12 11 12 8 8 11 12 11 13 16 18 18 15 13 6 6 8 8 8 10 11 7 10
Wind_Direction
299 316 313 312 307 303 299 298 295 298 296 295 294 292 290 289 287 284 281 281 278 276 274 273 272 270 267 255 249 252 256 263 271 274 273 271 269 267 267 263 263 260 251
327 314 312 312 306 302 302 304 303 300 298 295 294 292 291 288 287 285 284 284 283 282 277 271 270 263 259 254 249 251 248 246 256 268 271 278 275 271 270 269 268 263 259
309 310 308 308 308 309 308 308 306 302 300 298 294 292 292 290 289 284 282 285 281 275 272 266 263 262 261 256 254 254 254 255 250 251 254 258 264 270 271 266 260 258 258
303 307 309 312 315 310 309 305 304 302 300 298 296 295 292 290 287 283 285 282 276 271 268 264 267 265 258 252 250 251 249 246 248 252 245 242 245 252 260 263 257 250 252
309 309 310 312 309 308 307 306 304 303 301 299 297 295 292 289 289 292 287 277 272 268 261 258 258 255 256 251 244 243 240 240 244 244 246 240 239 239 249 251 252 260 258
304 309 314 311 311 309 308 307 305 304 302 302 305 299 296 294 294 293 292 283 279 276 276 271 269 269 271 266 263 259 240 225 233 239 239 238 234 236 249 256 262 256 258
314 314 311 311 310 310 307 304 304 303 306 304 301 298 295 294 296 294 295 293 290 288 286 286 281 269 271 267 260 266 265 260 233 227 231 225 228 240 236 236 245 253 250
310 311 313 313 310 309 308 307 306 307 306 305 295 298 298 293 295 300 298 299 303 289 288 292 283 275 263 257 254 249 245 254 255 259 224 220 233 240 254 261 241 255 262
311 312 314 313 309 311 310 310 310 312 306 304 304 302 297 297 299 304 308 299 304 299 290 292 280 272 265 262 251 233 231 225 246 251 248 214 216 222 225 225 235 241 248
317 315 313 312 311 310 310 312 312 299 300 304 298 295 298 299 298 303 307 313 305 307 302 292 305 315 313 283 235 236 196 217 234 247 246 238 241 241 236 229 237 241 229
315 312 312 312 312 312 310 307 303 301 302 304 294 299 295 291 300 305 314 314 315 317 312 310 313 329 347 349 227 218 212 211 223 231 236 234 238 235 227 224 223 232 232
314 310 313 315 318 308 320 310 307 307 306 297 296 295 295 298 313 307 313 325 326 329 313 304 312 326 339 346 319 216 241 234 243 250 231 233 232 239 248 238 225 217 231
312 312 319 320 316 320 316 307 310 308 299 297 296 296 313 315 298 314 325 327 327 329 318 320 319 310 305 301 343 344 284 255 241 230 235 233 237 218 237 245 255 233 227
312 319 321 318 325 323 315 315 306 306 304 302 302 308 311 314 324 327 322 324 328 327 323 309 318 301 310 29 297 317 320 296 267 234 219 217 188 210 238 249 205 184 199
317 317 319 322 330 317 315 313 310 302 307 319 322 322 330 314 331 337 334 336 334 332 330 304 325 314 321 328 332 352 333 313 290 194 192 157 191 236 188 160 173 160 216
314 318 323 322 318 313 309 313 312 311 318 325 323 323 327 335 341 343 344 341 340 351 345 338 336 337 337 345 331 329 339 321 300 185 193 166 148 226 86 129 166 234 145
313 317 324 314 305 312 315 310 311 313 313 319 325 326 331 331 345 344 337 346 344 351 342 342 342 342 337 329 332 333 351 314 311 275 157 145 128 103 121 124 216 143 114
316 319 317 307 309 311 311 308 305 310 317 322 325 327 331 331 341 344 346 336 339 349 343 337 337 333 337 331 321 328 302 295 338 168 170 124 154 163 144 114 84 77 105
315 324 322 311 312 318 316 311 308 311 313 312 322 324 334 337 343 343 344 340 333 334 332 327 327 323 322 324 324 315 328 329 349 92 147 153 153 144 127 133 139 141 116
326 322 327 316 317 319 316 315 315 310 308 317 316 319 324 331 339 337 336 333 327 324 324 314 312 308 309 308 313 317 306 312 258 140 144 148 149 139 137 143 152 148 154
323 328 322 312 317 327 312 320 322 315 315 311 311 327 332 335 335 332 330 328 321 314 310 306 303 298 294 293 295 299 310 301 298 208 172 159 156 158 154 150 144 144 152
321 326 315 311 322 328 326 324 324 323 319 322 317 323 340 339 331 332 327 322 314 301 293 290 289 283 276 270 269 271 265 274 276 258 191 181 185 171 164 144 133 124 146
323 330 319 318 327 334 331 327 326 327 324 331 332 335 331 343 333 329 325 317 310 302 294 284 282 277 263 250 246 249 248 240 249 284 221 193 191 185 176 158 158 160 154
333 322 322 326 326 328 322 332 333 333 334 339 324 335 341 337 330 328 323 316 310 304 297 283 272 269 262 245 238 229 232 231 232 255 260 171 204 186 175 173 165 164 148
336 325 323 332 329 329 329 335 337 337 339 329 340 333 341 335 331 329 322 320 318 314 306 295 277 265 254 244 234 224 218 215 217 216 217 189 184 197 179 183 188 182 166
334 333 332 336 333 331 333 335 339 344 345 338 335 339 338 336 334 329 326 326 326 323 320 311 295 279 268 243 223 210 209 204 204 220 199 202 184 187 188 189 200 187 176